| time (UTC) | temp F | wind direction | speed MPH | gust MPH | rain 1hr in | rain 24hr in | rain mn in | humidity % | barometer mb |
| 20260507144516 | 52 | 80 | 9.0 | 13.0 | 0.00 | 0.00 | 0.00 | 75 | 998.9 |
| 20260507143014 | 51 | 98 | 12.0 | 15.0 | 0.00 | 0.00 | 0.00 | 76 | 999.0 |
| 20260507141513 | 51 | 81 | 9.0 | 13.0 | 0.00 | 0.00 | 0.00 | 76 | 999.1 |
| 20260507140012 | 51 | 74 | 7.0 | 13.0 | 0.00 | 0.00 | 0.00 | 77 | 999.1 |
| 20260507134557 | 51 | 76 | 10.0 | 14.0 | 0.00 | 0.00 | 0.00 | 77 | 999.1 |
| 20260507133056 | 51 | 63 | 12.0 | 18.0 | 0.00 | 0.00 | 0.00 | 77 | 998.8 |
| 20260507131554 | 51 | 85 | 14.0 | 17.0 | 0.00 | 0.00 | 0.00 | 77 | 998.6 |
| 20260507124549 | 50 | 84 | 10.0 | 17.0 | 0.00 | 0.00 | 0.00 | 78 | 998.0 |
| 20260507123050 | 50 | 57 | 12.0 | 16.0 | 0.00 | 0.00 | 0.00 | 78 | 997.8 |
| 20260507121547 | 50 | 71 | 12.0 | 18.0 | 0.00 | 0.00 | 0.00 | 78 | 997.5 |
| 20260507120047 | 50 | 54 | 13.0 | 17.0 | 0.00 | 0.00 | 0.00 | 77 | 997.4 |
| 20260507114544 | 50 | 84 | 12.0 | 20.0 | 0.00 | 0.00 | 0.00 | 76 | 996.9 |
| 20260507113042 | 50 | 69 | 13.0 | 19.0 | 0.00 | 0.00 | 0.00 | 75 | 997.0 |
| 20260507111543 | 51 | 80 | 15.0 | 23.0 | 0.00 | 0.00 | 0.00 | 73 | 996.6 |
| 20260507110037 | 51 | 65 | 17.0 | 24.0 | 0.00 | 0.00 | 0.00 | 72 | 996.6 |
| 20260507104543 | 51 | 80 | 14.0 | 22.0 | 0.00 | 0.00 | 0.00 | 71 | 996.3 |
| 20260507103041 | 52 | 93 | 14.0 | 23.0 | 0.00 | 0.00 | 0.00 | 71 | 996.2 |
| 20260507101545 | 52 | 79 | 16.0 | 22.0 | 0.00 | 0.00 | 0.00 | 70 | 996.3 |
| 20260507100040 | 52 | 59 | 15.0 | 21.0 | 0.00 | 0.00 | 0.00 | 69 | 996.2 |
| 20260507094540 | 53 | 70 | 14.0 | 20.0 | 0.00 | 0.00 | 0.00 | 68 | 995.9 |
| 20260507093034 | 53 | 88 | 14.0 | 19.0 | 0.00 | 0.00 | 0.00 | 68 | 995.8 |
| 20260507091627 | 53 | 80 | 11.0 | 20.0 | 0.00 | 0.00 | 0.00 | 66 | 995.7 |
| 20260507090032 | 54 | 59 | 11.0 | 17.0 | 0.00 | 0.00 | 0.00 | 65 | 995.6 |
| 20260507084519 | 55 | 43 | 12.0 | 15.0 | 0.00 | 0.00 | 0.00 | 62 | 995.6 |
| 20260507083009 | 55 | 319 | 8.0 | 15.0 | 0.00 | 0.00 | 0.00 | 52 | 995.6 |
| 20260507081515 | 57 | 335 | 8.0 | 11.0 | 0.00 | 0.00 | 0.00 | 46 | 995.4 |
| 20260507074502 | 58 | 321 | 9.0 | 12.0 | 0.00 | 0.00 | 0.00 | 53 | 994.8 |
| 20260507073103 | 61 | 93 | 5.0 | 7.0 | 0.00 | 0.00 | 0.00 | 50 | 994.4 |
| 20260507071601 | 61 | 141 | 1.0 | 7.0 | 0.00 | 0.00 | 0.00 | 48 | 994.5 |
| 20260507064552 | 62 | 104 | 1.0 | 15.0 | 0.00 | 0.00 | 0.00 | 39 | 993.8 |
| 20260507063051 | 64 | 270 | 7.0 | 9.0 | 0.00 | 0.00 | 0.00 | 27 | 993.4 |
| 20260507061647 | 66 | 275 | 8.0 | 10.0 | 0.00 | 0.00 | 0.00 | 25 | 993.3 |
| 20260507060052 | 66 | 252 | 8.0 | 10.0 | 0.00 | 0.00 | 0.00 | 25 | 993.0 |
| 20260507054551 | 65 | 273 | 8.0 | 10.0 | 0.00 | 0.00 | 0.00 | 26 | 993.0 |
| 20260507053054 | 64 | 269 | 8.0 | 10.0 | 0.00 | 0.00 | 0.00 | 27 | 992.8 |
| 20260507051549 | 64 | 281 | 8.0 | 11.0 | 0.00 | 0.00 | 0.00 | 28 | 992.8 |
| 20260507050049 | 64 | 280 | 10.0 | 13.0 | 0.00 | 0.00 | 0.00 | 29 | 992.7 |
| 20260507044606 | 64 | 273 | 12.0 | 13.0 | 0.00 | 0.00 | 0.00 | 30 | 992.6 |
| 20260507043059 | 66 | 291 | 7.0 | 9.0 | 0.00 | 0.00 | 0.00 | 26 | 992.5 |
| 20260507041554 | 68 | 282 | 7.0 | 8.0 | 0.00 | 0.00 | 0.00 | 23 | 992.3 |
| 20260507040052 | 67 | 281 | 4.0 | 7.0 | 0.00 | 0.00 | 0.00 | 24 | 992.2 |
| 20260507034558 | 67 | 279 | 3.0 | 7.0 | 0.00 | 0.00 | 0.00 | 25 | 992.0 |
| 20260507033049 | 67 | 265 | 3.0 | 9.0 | 0.00 | 0.00 | 0.00 | 25 | 991.8 |
| 20260507031550 | 67 | 243 | 10.0 | 11.0 | 0.00 | 0.00 | 0.00 | 25 | 991.6 |
| 20260507030054 | 68 | 244 | 9.0 | 11.0 | 0.00 | 0.00 | 0.00 | 24 | 991.3 |
| 20260507024543 | 69 | 252 | 8.0 | 11.0 | 0.00 | 0.00 | 0.00 | 24 | 991.2 |
| 20260507023039 | 69 | 243 | 8.0 | 10.0 | 0.00 | 0.00 | 0.00 | 24 | 990.9 |
| 20260507021537 | 71 | 254 | 10.0 | 11.0 | 0.00 | 0.00 | 0.00 | 23 | 990.7 |
| 20260507020046 | 73 | 248 | 9.0 | 13.0 | 0.00 | 0.00 | 0.00 | 20 | 990.2 |
| 20260507014553 | 74 | 246 | 12.0 | 16.0 | 0.00 | 0.00 | 0.00 | 20 | 989.9 |
| 20260507013058 | 75 | 244 | 12.0 | 21.0 | 0.00 | 0.00 | 0.00 | 19 | 989.8 |
| 20260507011550 | 76 | 229 | 13.0 | 19.0 | 0.00 | 0.00 | 0.00 | 18 | 989.6 |
| 20260507010048 | 77 | 237 | 15.0 | 26.0 | 0.00 | 0.00 | 0.00 | 17 | 989.6 |
| 20260507004540 | 78 | 228 | 18.0 | 28.0 | 0.00 | 0.00 | 0.00 | 17 | 989.4 |
| 20260507003045 | 78 | 246 | 22.0 | 29.0 | 0.00 | 0.00 | 0.00 | 17 | 989.2 |
| 20260507001542 | 79 | 226 | 25.0 | 35.0 | 0.00 | 0.00 | 0.00 | 17 | 988.9 |
| 20260507000040 | 79 | 221 | 19.0 | 35.0 | 0.00 | 0.00 | 0.00 | 17 | 988.8 |
| 20260506234532 | 79 | 225 | 21.0 | 32.0 | 0.00 | 0.00 | 0.00 | 17 | 988.9 |
| 20260506233031 | 79 | 225 | 20.0 | 33.0 | 0.00 | 0.00 | 0.00 | 16 | 988.7 |
| 20260506231530 | 80 | 226 | 15.0 | 28.0 | 0.00 | 0.00 | 0.00 | 17 | 988.7 |
| 20260506230032 | 79 | 198 | 16.0 | 24.0 | 0.00 | 0.00 | 0.00 | 18 | 988.6 |
| 20260506224547 | 80 | 241 | 23.0 | 32.0 | 0.00 | 0.00 | 0.00 | 18 | 988.4 |
| 20260506223037 | 79 | 233 | 19.0 | 25.0 | 0.00 | 0.00 | 0.00 | 18 | 988.4 |
| 20260506221534 | 79 | 225 | 19.0 | 30.0 | 0.00 | 0.00 | 0.00 | 18 | 988.4 |
| 20260506220037 | 79 | 235 | 17.0 | 26.0 | 0.00 | 0.00 | 0.00 | 19 | 988.6 |
| 20260506214530 | 80 | 248 | 17.0 | 24.0 | 0.00 | 0.00 | 0.00 | 19 | 988.7 |
| 20260506213026 | 79 | 232 | 16.0 | 22.0 | 0.00 | 0.00 | 0.00 | 20 | 988.9 |
| 20260506211527 | 78 | 203 | 13.0 | 22.0 | 0.00 | 0.00 | 0.00 | 21 | 988.9 |
| 20260506210024 | 78 | 233 | 13.0 | 23.0 | 0.00 | 0.00 | 0.00 | 22 | 989.1 |
| 20260506204532 | 77 | 202 | 15.0 | 22.0 | 0.00 | 0.00 | 0.00 | 24 | 989.4 |
| 20260506203033 | 78 | 198 | 15.0 | 25.0 | 0.00 | 0.00 | 0.00 | 24 | 989.7 |
| 20260506201531 | 76 | 196 | 15.0 | 24.0 | 0.00 | 0.00 | 0.00 | 25 | 989.8 |
| 20260506200032 | 77 | 263 | 18.0 | 25.0 | 0.00 | 0.00 | 0.00 | 25 | 990.0 |
| 20260506194611 | 75 | 225 | 14.0 | 22.0 | 0.00 | 0.00 | 0.00 | 27 | 990.1 |
| 20260506193009 | 75 | 214 | 15.0 | 24.0 | 0.00 | 0.00 | 0.00 | 26 | 990.2 |
| 20260506191509 | 75 | 248 | 14.0 | 26.0 | 0.00 | 0.00 | 0.00 | 27 | 990.4 |
| 20260506190009 | 74 | 232 | 16.0 | 24.0 | 0.00 | 0.00 | 0.00 | 27 | 990.6 |
| 20260506184529 | 75 | 262 | 12.0 | 20.0 | 0.00 | 0.00 | 0.00 | 28 | 990.7 |
| 20260506183024 | 74 | 267 | 14.0 | 21.0 | 0.00 | 0.00 | 0.00 | 28 | 990.9 |
| 20260506181521 | 73 | 229 | 10.0 | 18.0 | 0.00 | 0.00 | 0.00 | 35 | 991.1 |
| 20260506180024 | 70 | 128 | 6.0 | 16.0 | 0.00 | 0.00 | 0.00 | 39 | 991.4 |
| 20260506174515 | 69 | 138 | 6.0 | 17.0 | 0.00 | 0.00 | 0.00 | 42 | 991.6 |
| 20260506173014 | 69 | 121 | 10.0 | 14.0 | 0.00 | 0.00 | 0.00 | 43 | 991.7 |
| 20260506171513 | 68 | 110 | 8.0 | 14.0 | 0.00 | 0.00 | 0.00 | 45 | 991.7 |
| 20260506170015 | 68 | 96 | 5.0 | 13.0 | 0.00 | 0.00 | 0.00 | 46 | 991.7 |
| 20260506164603 | 67 | 92 | 8.0 | 13.0 | 0.00 | 0.00 | 0.00 | 46 | 991.8 |
| 20260506163104 | 69 | 88 | 2.0 | 8.0 | 0.00 | 0.00 | 0.00 | 43 | 991.6 |
| 20260506161605 | 67 | 28 | 9.0 | 16.0 | 0.00 | 0.00 | 0.00 | 47 | 991.6 |
| 20260506160052 | 66 | 92 | 16.0 | 23.0 | 0.00 | 0.00 | 0.00 | 49 | 991.4 |
| 20260506154611 | 68 | 51 | 10.0 | 14.0 | 0.00 | 0.00 | 0.00 | 40 | 991.4 |
| 20260506153048 | 65 | 28 | 10.0 | 15.0 | 0.00 | 0.00 | 0.00 | 45 | 991.2 |
| 20260506151546 | 64 | 38 | 12.0 | 16.0 | 0.00 | 0.00 | 0.00 | 47 | 991.1 |
| 20260506150050 | 63 | 24 | 13.0 | 18.0 | 0.00 | 0.00 | 0.00 | 48 | 991.0 |